map of QIE home
Great Circle Mapper logo
QIE - Airport
Location
City:  Istres, France
Name:Istres-Le Tubé AB
ICAO / IATA:LFMI / QIE

Details
Type:Airport (Aerodrome, Airfield)
Use:Public/Civil, Military
Latitude:43°31'21"N (43.522394)
Longitude:4°55'27"E (4.924236)
Elevation:82 ft (25 m)
Runways:1
Longest:12303 × 197 ft (3750 × 60 m)

Time
Time Zone:UTC+1 (DST+2)
Local Time:

Weather
METAR:LFMI 231630Z AUTO 35015KT 9999 NSC 26/08 Q1015
TAF:LFMI 231700Z 2318/2418 32013KT CAVOK
BECMG 2408/2410 33020G32KT
BECMG 2415/2417 35012KT

Related Locations
Nearby:
Farthest:CHT: 12368 mi / 19904 km
Waitangi [Tuuta], Chatham Islands, NZ

Find:

   beyond  
but within

Other Information
Maps:
NOTAMs:
Links:
Sources:

  
flag of France   

Airport Diagram

Airport diagram for QIE

Airport diagram (OBSOLETE) from NGA

Sectional Chart

Flight Planning
at skyvector.com

Satellite Image

Google Maps Satellite View

 

Copyright © 2004-2014 Karl L. Swartz. All rights reserved.
The Great Circle Mapper name and logo are trademarks of the Great Circle Mapper.
All other trademarks mentioned herein belong to their respective owners.
Please see credits for attibutions and further copyright information.

  Follow gcmap on Facebook Follow gcmap on Twitter

hCard Microformat

Geo Microformat